Powrót do katalogu

SL-12 R/B

AUX MOTOR

AktywnyHEO
NORAD 14277·ROCKET BODY·🇷🇺 Russia

Wystrzelony Aug 10, 1983 z Baikonur Cosmodrome

Loading…

Następne Przeloty (najbliższe 24 godziny)

TLE

ŚwieżeSource: Space-Track

Epoka: Sep 14, 2026, 10:15 UTC

1 14277U 83084G   26257.42745788  .00007026  00000-0  17695-2 0  9996
2 14277  51.9721 307.1031 5393580 199.1838 128.3319  4.95447048724099

Śledź SL-12 R/B w czasie rzeczywistym z AllMySat

Download on the App Store